GW2821 Weather Reports


time (UTC)temp
C
wind
direction
speed
KPH
gust
KPH
rain 1hr
cm
rain 24hr
cm
rain mn
cm
humidity
%
barometer
mb
20260508053400 8 0.0 0.0 0.00 0.05 0.05 77
20260508052350 8 98 0.0 1.6 0.00 0.05 0.05 77
20260508051349 10 0.0 0.0 0.00 0.05 0.05 69
20260508011119 15 206 4.8 8.0 0.00 0.05 0.05 57
20260508010114 16 271 11.3 14.5 0.00 0.05 0.05 57
20260508004719 16 326 3.2 8.0 0.00 0.05 0.05 53
20260508003448 16 63 9.7 14.5 0.00 0.05 0.05 49
20260508001625 16 78 4.8 4.8 0.00 0.05 0.05 48
20260508000407 15 55 11.3 12.9 0.00 0.05 0.05 53
20260507235328 16 17 9.7 14.5 0.00 0.05 0.05 50
20260507233344 14 33 27.4 37.0 0.00 0.05 0.05 56
20260507232648 14 4 45.1 54.7 0.00 0.05 0.05 58
20260507231256 15 14 20.9 25.7 0.00 0.05 0.05 59
20260507230151 17 320 11.3 16.1 0.00 0.05 0.05 49
20260507224511 17 28 19.3 22.5 0.00 0.05 0.05 47
20260507222631 17 22 12.9 14.5 0.00 0.05 0.05 48
20260507221017 16 23 12.9 16.1 0.00 0.05 0.05 50
20260507220232 16 13 14.5 17.7 0.00 0.05 0.05 49
20260507214751 16 263 6.4 9.7 0.00 0.05 0.05 50
20260507213832 16 17 8.0 9.7 0.00 0.05 0.05 52
20260507212407 16 153 6.4 8.0 0.00 0.05 0.05 51
20260507211419 16 307 6.4 9.7 0.00 0.05 0.05 50
20260507210319 16 59 8.0 11.3 0.00 0.05 0.05 51
20260507205312 16 327 12.9 16.1 0.00 0.05 0.05 49
20260507204041 17 34 8.0 11.3 0.00 0.05 0.05 52
20260507202007 15 29 8.0 11.3 0.00 0.05 0.05 55
20260507192248 12 343 11.3 17.7 0.00 0.05 0.05 79
20260507185344 14 73 16.1 25.7 0.00 0.05 0.05 60
20260507185049 15 92 16.1 17.7 0.00 0.05 0.05 60
20260507183138 15 331 12.9 17.7 0.00 0.05 0.05 57
20260507181744 17 19 24.1 30.6 0.00 0.05 0.05 53
20260507181344 16 46 8.0 11.3 0.00 0.05 0.05 57
20260507180528 16 55 8.0 16.1 0.00 0.05 0.05 57
20260507175438 16 58 9.7 16.1 0.00 0.05 0.05 57
20260507170250 15 354 11.3 17.7 0.00 0.05 0.05 59
20260507162056 13 11 11.3 14.5 0.00 0.05 0.05 67
20260507161124 13 114 1.6 1.6 0.00 0.05 0.05 72
20260507160424 12 0.0 0.0 0.00 0.05 0.05 78
20260507154216 11 75 1.6 1.6 0.00 0.05 0.05 80
20260507153152 11 0.0 0.0 0.00 0.05 0.05 82
20260507152131 11 145 1.6 1.6 0.00 0.05 0.05 83
20260507151121 10 131 1.6 1.6 0.00 0.05 0.05 82
20260507150128 11 140 3.2 4.8 0.00 0.05 0.05 82
20260507145610 11 126 0.0 1.6 0.00 0.05 0.05 81
20260507140824 9 207 3.2 3.2 0.00 0.05 0.05 88
20260507135852 10 219 4.8 4.8 0.00 0.05 0.05 84
20260507134826 11 99 3.2 3.2 0.00 0.05 0.05 78
20260507133837 10 94 4.8 4.8 0.00 0.05 0.05 80
20260507132752 10 74 6.4 8.0 0.00 0.05 0.05 79
20260507131804 10 61 9.7 11.3 0.00 0.05 0.05 79
20260507130752 10 41 12.9 16.1 0.00 0.05 0.05 78
20260507125800 10 76 9.7 11.3 0.00 0.05 0.05 81
20260507124812 9 70 4.8 4.8 0.00 0.05 0.05 84
20260507123801 9 101 3.2 3.2 0.00 0.05 0.05 85
20260507122755 9 119 6.4 8.0 0.00 0.05 0.05 83
20260507121800 8 106 6.4 8.0 0.00 0.05 0.05 85
20260507120753 9 103 0.0 1.6 0.00 0.05 0.05 84
20260507115800 9 117 6.4 8.0 0.00 0.05 0.05 82
20260507114813 10 133 4.8 4.8 0.00 0.05 0.05 77
20260507113800 9 91 11.3 14.5 0.03 0.05 0.05 81
20260507112813 8 70 14.5 16.1 0.05 0.05 0.05 86
20260507111803 9 79 4.8 4.8 0.05 0.05 0.05 83
20260507110813 9 71 4.8 4.8 0.05 0.05 0.05 84
20260507105800 9 36 14.5 14.5 0.05 0.05 0.05 83
20260507104752 9 25 22.5 24.1 0.05 0.05 0.05 84
20260507103820 9 7 17.7 24.1 0.03 0.03 0.03 87
20260507102840 10 320 20.9 29.0 0.00 0.00 0.00 83
20260507101716 11 313 17.7 24.1 0.00 0.00 0.00 77
20260507100528 13 0.0 0.0 0.00 0.00 0.00 59
20260507094704 12 111 8.0 9.7 0.00 0.00 0.00 59
20260507093701 13 0.0 0.0 0.00 0.00 0.00 59
20260507092725 13 0.0 0.0 0.00 0.00 0.00 57
20260507091627 13 136 1.6 4.8 0.00 0.00 0.00 56
20260507090721 13 108 1.6 3.2 0.00 0.00 0.00 59
20260507083417 12 95 6.4 8.0 0.00 0.00 0.00 63
20260507082354 12 115 1.6 3.2 0.00 0.00 0.00 64
20260507081418 12 86 6.4 8.0 0.00 0.00 0.00 63
20260507080415 12 82 4.8 4.8 0.00 0.00 0.00 64
20260507075349 12 94 8.0 9.7 0.00 0.00 0.00 62
20260507074321 12 105 6.4 8.0 0.00 0.00 0.00 63